Weather History for KLWA - February, 2013

Change the Weather History Date:

Friday, February 15, 2013

  Actual Average (KBIV) Record (KBIV)
Temperature  
Mean Temperature 28 °F 28 °F  
Max Temperature 29 °F 35 °F 60 °F (1954)
Min Temperature 23 °F 22 °F -9 °F (1963)
Degree Days  
Heating Degree Days 37 37  
Month to date heating degree days 571  
Since 1 July heating degree days 4045  
Cooling Degree Days 0 0  
Month to date cooling degree days 0  
Year to date cooling degree days 0  
Moisture  
Dew Point 19 °F    
Average Humidity 73    
Maximum Humidity 93    
Minimum Humidity 49    
Precipitation  
Precipitation 0.00 in 0.07 in 0.69 in (1990)
Month to date precipitation 0.83  
Year to date precipitation 2.92  
Sea Level Pressure  
Sea Level Pressure 30.07 in    
Wind  
Wind Speed 6 mph (NNW)    
Max Wind Speed 15 mph    
Max Gust Speed 21 mph    
Visibility 7 miles    
Events Snow    
T = Trace of Precipitation, MM = Missing Value Source: NWS Daily Summary

Daily Weather History Graph

Daily Weather History Graph

Search for Another Location

Airport or City:

Trip Planner

Search our weather history database for the weather conditions in past years. The results will help you decide how hot, cold, wet, or windy it might be!

Date:

Astronomy

Feb. 15, 2013 Rise Set
Actual Time 7:41 AM EST 6:17 PM EST
Civil Twilight 7:12 AM EST 6:46 PM EST
Nautical Twilight 6:39 AM EST 7:19 PM EST
Astronomical Twilight 6:06 AM EST 7:52 PM EST
Moon 10:09 AM EST (2/15) No Moon Set
Length of Visible Light 11h 34m
Length of Day
10h 36m
Waxing Crescent, 30% of the Moon is Illuminated
Feb 15
Waxing Crescent
Feb 17
First Quarter
Feb 25
Full
Mar 4
Last Quarter
Mar 11
New

Hourly Weather History & Observations

Time (EST) Temp. Windchill Dew Point Humidity Pressure Visibility Wind Dir Wind Speed Gust Speed Precip Events Conditions
12:15 AM 33.8 °F 25.8 °F 27.1 °F 77% 29.92 in 10.0 mi WNW 10.4 mph - N/A   Overcast
12:35 AM 30.6 °F 24.7 °F 27.1 °F 87% 29.92 in 5.0 mi North 5.8 mph 18.4 mph N/A Snow Light Snow
12:55 AM 28.9 °F 21.9 °F 26.6 °F 91% 29.93 in 1.8 mi North 6.9 mph - N/A Snow Light Snow
1:15 AM 28.9 °F 21.1 °F 26.4 °F 90% 29.94 in 4.0 mi North 8.1 mph - N/A Snow Light Snow
1:34 AM 28.8 °F 25.0 °F 26.6 °F 92% 29.94 in 4.0 mi North 3.5 mph - N/A Snow Light Snow
1:55 AM 28.9 °F 23.9 °F 26.2 °F 90% 29.94 in 4.0 mi North 4.6 mph - N/A Snow Light Snow
2:15 AM 28.4 °F 24.6 °F 26.2 °F 92% 29.94 in 2.5 mi NNE 3.5 mph - N/A Snow Light Snow
2:35 AM 28.0 °F 24.2 °F 25.3 °F 90% 29.95 in 7.0 mi North 3.5 mph - N/A Snow Light Snow
2:55 AM 27.5 °F - 25.0 °F 90% 29.95 in 5.0 mi Calm Calm - N/A Snow Light Snow
3:14 AM 27.9 °F 24.0 °F 25.2 °F 90% 29.96 in 3.0 mi NNE 3.5 mph - N/A Snow Light Snow
3:35 AM 27.5 °F 23.6 °F 24.8 °F 90% 29.97 in 2.5 mi NE 3.5 mph - N/A Snow Light Snow
3:55 AM 27.1 °F 23.2 °F 24.4 °F 90% 29.97 in 1.8 mi NE 3.5 mph - N/A Snow Light Snow
4:15 AM 27.0 °F - 24.6 °F 91% 29.97 in 2.5 mi Calm Calm - N/A Snow Light Snow
4:35 AM 27.7 °F - 25.3 °F 91% 29.98 in 5.0 mi Calm Calm - N/A Snow Light Snow
4:55 AM 27.0 °F - 24.6 °F 91% 29.98 in 7.0 mi Calm Calm - N/A Snow Light Snow
5:15 AM 26.6 °F - 24.8 °F 93% 29.99 in 4.0 mi Calm Calm - N/A Snow Light Snow
5:35 AM 27.1 °F - 25.2 °F 92% 30.00 in 5.0 mi Calm Calm - N/A Snow Light Snow
5:54 AM 27.1 °F 17.5 °F 22.6 °F 83% 30.01 in 5.0 mi NNE 10.4 mph - N/A Snow Light Snow
6:15 AM 26.6 °F 20.0 °F 21.7 °F 82% 30.02 in 7.0 mi North 5.8 mph - N/A Snow Light Snow
6:35 AM 26.1 °F 17.6 °F 21.6 °F 83% 30.02 in 5.0 mi NNE 8.1 mph - N/A Snow Light Snow
6:55 AM 25.5 °F 16.2 °F 21.6 °F 85% 30.03 in 3.0 mi NE 9.2 mph - N/A Snow Light Snow
7:15 AM 24.6 °F 17.7 °F 21.2 °F 87% 30.04 in 2.5 mi NE 5.8 mph - N/A Snow Light Snow
7:34 AM 24.4 °F 20.1 °F 21.2 °F 87% 30.05 in 2.5 mi North 3.5 mph - N/A Snow Light Snow
7:55 AM 23.9 °F 19.5 °F 21.6 °F 91% 30.06 in 1.2 mi NE 3.5 mph - N/A Snow Light Snow
8:14 AM 23.9 °F - 21.7 °F 91% 30.07 in 1.5 mi Calm Calm - N/A Snow Light Snow
8:35 AM 23.9 °F - 21.7 °F 91% 30.07 in 5.0 mi Calm Calm - N/A Snow Light Snow
8:55 AM 26.6 °F 16.8 °F 19.2 °F 74% 30.08 in 10.0 mi NNW 10.4 mph - N/A   Overcast
9:14 AM 26.8 °F 17.7 °F 18.7 °F 72% 30.08 in 10.0 mi NNW 9.2 mph - N/A   Overcast
9:35 AM 27.1 °F 17.5 °F 17.8 °F 68% 30.09 in 10.0 mi NNW 10.4 mph 17.3 mph N/A   Overcast
9:54 AM 27.1 °F 18.2 °F 17.8 °F 68% 30.10 in 10.0 mi NNW 9.2 mph 16.1 mph N/A   Overcast
10:15 AM 27.0 °F 17.3 °F 17.6 °F 68% 30.10 in 7.0 mi NNW 10.4 mph 19.6 mph N/A Snow Light Snow
10:35 AM 27.1 °F 16.9 °F 15.8 °F 62% 30.11 in 10.0 mi NNW 11.5 mph 16.1 mph N/A Snow Light Snow
10:55 AM 27.1 °F 17.5 °F 13.6 °F 57% 30.11 in 10.0 mi NNW 10.4 mph 20.7 mph N/A   Overcast
11:15 AM 26.6 °F 17.5 °F 16.0 °F 64% 30.12 in 10.0 mi NNW 9.2 mph - N/A Snow Light Snow
11:34 AM 26.2 °F 17.1 °F 17.2 °F 69% 30.12 in 7.0 mi NNW 9.2 mph 16.1 mph N/A Snow Light Snow
11:55 AM 26.8 °F 14.9 °F 16.9 °F 66% 30.12 in 7.0 mi NNW 15.0 mph 18.4 mph N/A Snow Light Snow
12:15 PM 26.6 °F 16.8 °F 15.3 °F 62% 30.12 in 10.0 mi NNW 10.4 mph 16.1 mph N/A   Overcast
12:55 PM 26.6 °F 16.2 °F 15.3 °F 62% 30.12 in 10.0 mi NNW 11.5 mph 17.3 mph N/A   Overcast
1:14 PM 26.6 °F 16.8 °F 15.3 °F 62% 30.12 in 10.0 mi NNW 10.4 mph - N/A   Overcast
1:35 PM 26.6 °F 16.2 °F 14.5 °F 60% 30.12 in 10.0 mi North 11.5 mph 17.3 mph N/A   Overcast
1:55 PM 26.6 °F 17.5 °F 15.1 °F 62% 30.12 in 10.0 mi NW 9.2 mph - N/A   Overcast
2:15 PM 25.9 °F 16.0 °F 15.8 °F 66% 30.12 in 7.0 mi NNW 10.4 mph 17.3 mph N/A Snow Light Snow
2:34 PM 26.2 °F 18.6 °F 15.6 °F 64% 30.12 in 10.0 mi NW 6.9 mph 17.3 mph N/A Snow Light Snow
2:55 PM 26.2 °F 16.4 °F 15.4 °F 64% 30.12 in 10.0 mi NW 10.4 mph 18.4 mph N/A Snow Light Snow
3:15 PM 26.4 °F 18.9 °F 16.3 °F 66% 30.12 in 10.0 mi NNW 6.9 mph - N/A Snow Light Snow
3:35 PM 26.4 °F 18.9 °F 14.4 °F 60% 30.12 in 10.0 mi NW 6.9 mph - N/A   Overcast
3:55 PM 25.7 °F 17.1 °F 15.8 °F 66% 30.12 in 10.0 mi NW 8.1 mph - N/A Snow Light Snow
4:15 PM 26.1 °F 20.5 °F 14.5 °F 62% 30.12 in 10.0 mi WNW 4.6 mph - N/A   Overcast
4:35 PM 25.9 °F 17.4 °F 14.9 °F 63% 30.13 in 10.0 mi NW 8.1 mph - N/A   Overcast
4:55 PM 25.7 °F 18.0 °F 16.7 °F 69% 30.13 in 7.0 mi NW 6.9 mph - N/A Snow Light Snow
5:15 PM 25.7 °F 19.0 °F 14.5 °F 63% 30.13 in 10.0 mi WNW 5.8 mph - N/A   Overcast
5:34 PM 25.5 °F 21.3 °F 14.9 °F 64% 30.14 in 10.0 mi NNW 3.5 mph - N/A Snow Light Snow
5:55 PM 25.5 °F 21.3 °F 16.5 °F 69% 30.14 in 5.0 mi WNW 3.5 mph - N/A Snow Light Snow
6:15 PM 25.7 °F 19.0 °F 13.6 °F 60% 30.14 in 10.0 mi WNW 5.8 mph - N/A Snow Light Snow
6:34 PM 25.3 °F 21.1 °F 14.4 °F 63% 30.14 in 10.0 mi WNW 3.5 mph - N/A   Overcast
6:55 PM 25.7 °F 17.1 °F 14.2 °F 62% 30.14 in 10.0 mi WNW 8.1 mph - N/A   Overcast
7:15 PM 25.7 °F 20.1 °F 14.4 °F 62% 30.14 in 10.0 mi West 4.6 mph - N/A   Overcast
7:35 PM 26.1 °F 21.9 °F 14.5 °F 62% 30.14 in 7.0 mi NW 3.5 mph - N/A Snow Light Snow
7:55 PM 26.2 °F 17.8 °F 13.5 °F 59% 30.14 in 10.0 mi WNW 8.1 mph - N/A   Overcast
8:14 PM 26.4 °F 17.3 °F 13.3 °F 58% 30.14 in 10.0 mi WNW 9.2 mph - N/A   Overcast
8:35 PM 26.6 °F 18.2 °F 13.5 °F 58% 30.14 in 10.0 mi NW 8.1 mph - N/A   Overcast
8:55 PM 26.2 °F 19.6 °F 14.7 °F 62% 30.13 in 10.0 mi WNW 5.8 mph - N/A   Overcast
9:14 PM 26.8 °F 17.1 °F 9.7 °F 49% 30.14 in 10.0 mi WNW 10.4 mph - N/A   Overcast
9:35 PM 26.6 °F 17.5 °F 11.5 °F 53% 30.14 in 10.0 mi WNW 9.2 mph - N/A   Overcast
9:54 PM 26.6 °F 20.0 °F 10.9 °F 52% 30.13 in 10.0 mi WNW 5.8 mph - N/A   Overcast
10:15 PM 26.1 °F 16.2 °F 14.4 °F 61% 30.12 in 10.0 mi NW 10.4 mph 16.1 mph N/A   Overcast
10:34 PM 25.5 °F 17.8 °F 17.2 °F 71% 30.12 in 10.0 mi North 6.9 mph - N/A   Overcast
10:55 PM 25.5 °F 21.3 °F 17.6 °F 72% 30.12 in 10.0 mi NW 3.5 mph - N/A   Overcast
11:15 PM 25.5 °F - 16.9 °F 70% 30.11 in 10.0 mi Calm Calm - N/A   Overcast
11:34 PM 25.5 °F - 18.0 °F 73% 30.11 in 4.0 mi Calm Calm - N/A Snow Light Snow
11:55 PM 23.9 °F - 19.8 °F 84% 30.11 in 2.5 mi Calm Calm - N/A Snow Light Snow